Погода в Бугульме

Погода в Бугульме : погода сейчас, прогноз погоды и архив. Всё, что Вы хотите узнать о погоде в Бугульме!

Хотите узнать прогноз погоды в Бугульме? Тогда Вам сюда: Погода в Бугульме

Поиск расширенной информации на нашем сайте:

Другие новости

Новости СМИ2

Главная страница сайта

Новости сайта

03.07.2017

Напоминаем, что на нашем специализированном сайте Метеоцентр.Азия вы можете получить высокодетализированные автоматические прогнозы погоды по пунктам России, СНГ и мира в авиационном формате (включающие направление и скорость ветра, видимость, явления погоды, количество и форму облачности, нижнюю и верхнюю границу облачности).

Рекомендуем: Как сделать html ссылку.

Погода в Бугульме - сегодня

Время (UTC), дата Ветер
(°,м/с) 
Видим.   Явления Облачность Т
(°С)
Тd
(°С)
f(%) Тe
(°С)
Pmin
(гПа)
dP
(гПа)
Po
(мм)
O2
(г/м3)
Тmin Tmax R s Состояние
почвы
09 18.07.17 140 (ЮВ) 20000 м    10/6 1200 м средняя, верхняя 
[Cu Sc|Ac trans|Ci fib]
+26.7 +16 52 +38  1013.5  -0.7  734  266           
12 18.07.17 200 (Ю) 20000 м    10/4 1000 м средняя, верхняя 
[Cu med, cong|Ac trans|Ci fib]
+27.3 +14.7 46 +36  1012.7  -0.7  734  266           
15 18.07.17 160 (Ю) 2{11}  20000 м  гроза без осадков{ливн. осадки}  10/6 1200 м кучево-дожд., средняя, верхняя 
[Cb cap|Ac trans|Ci fib]
+20.1 +15.8 76 +31  1013.2  -0.3  734  272    +28     
18 18.07.17 290 (З) 10 км  {гроза, ливн. осадки}  10/4 1000 м кучево-дожд., средняя, верхняя 
[Cb calv|Ac trans|Ci fib]
+20.1 +16.7 81 +33  1013.7  0.5  734  272           
21 18.07.17 250 (З) 10 км    6/3 1000 м средняя 
[Sc diur, vesp|Ac trans]
+15.7 +14.3 91 +25  1015.3  735  277           
00 19.07.17 280 (З) 20000 м    4/4 300 м 
[Sc]
+14.3 +13.4 94 +21  1015.8  0.3  735  279           
03 19.07.17 320 (СЗ) 4000 м  дымка  10/10 60 м 
[St]
+13.7 +12.9 95 +20  1016.1  0.2  735  279  +13.1        влажная 
06 19.07.17 020 (С) 20000 м    3/3 300 м 
[Cu hum]
+19.1 +13 68 +26  1016.1  0.6  736  274           
09 19.07.17 020 (С) 20000 м    4/4 300 м 
[Cu hum]
+22.4 +12.7 54 +28  1015.2  -0.4  735  271           
12 19.07.17 330 (СЗ) 20000 м    4/4 300 м 
[Cu med, cong]
+23.4 +11.6 47 +27  1014.5  -0.5  735  271           
15 19.07.17 010 (С) 20000 м    4/4 1000 м 
[Cu hum]
+21.8 +12.5 55 +27  1014.5  -0.2  735  272    +23.9       
18 19.07.17 340 (С) 10 км    3/0 верхняя 
[Ci fib]
+17.6 +12.1 70 +24  1015.5  0.4  735  276           
21 19.07.17 300 (СЗ) 10 км    3/0 верхняя 
[Ci fib]
+14 +11.4 84 +18  1015.9  0.4  735  280           
00 20.07.17 тихо ()   20000 м    3/0 верхняя 
[Ci fib]
+10.6 +9.8 95 +12  1016.2  -0.2  735  283           
03 20.07.17 350 (С) 20000 м    3/0 верхняя 
[Ci fib]
+18.2 +13.4 74 +27  1015.6  0.4  735  275  +10.3        сухая 
06 20.07.17 040 (СВ) 20000 м    3/3 600 м 
[Cu hum]
+21.7 +12.8 57 +27  1015.3  0.1  735  272           
09 20.07.17 090 (В) 20000 м    6/6 1200 м 
[Cu hum]
+24.5 +11.5 44 +28  1014.7  -0.2  735  270           
12 20.07.17 080 (В) 20000 м    6/6 1200 м 
[Cu hum]
+25 +10.2 39 +27  1013.9  -0.8  735  269           
15 20.07.17 120 (ЮВ) 20000 м    3/3 1000 м 
[Cu hum]
+24 +11 44 +27  1013.4  -0.5  734  270    +25.4       
18 20.07.17 030 (СВ) 10 км    3/3 1000 м кучево-дожд. 
[Cb calv]
+16 +12 77 +21  1014.7  0.3  734  277           
21 20.07.17 тихо ()   10 км    3/3 1000 м 
[Sc]
+14.2 +11.4 83 +18  1015.2  0.3  735  279           
00 21.07.17 190 (Ю) 20000 м    3/0 верхняя 
[Ci fib]
+13.1 +11.5 90 +18  1015  -0.3  734  280           
03 21.07.17 100 (В) 20000 м    8/3 1000 м верхняя 
[Sc|Ci fib]
+18.9 +13.8 72 +27  1014.2  0.1  734  274  +12.8        сухая 
06 21.07.17 140 (ЮВ) 20000 м    10/3 1000 м верхняя 
[Cu hum|Ci fib]
+22.1 +14.1 60 +30  1013.7  0.1  734  271           
09 21.07.17 170 (Ю) 20000 м    10/6 600 м кучево-дожд., средняя, верхняя 
[Cb calv|Ac trans|Ci fib]
+21.4 +14.1 63 +29  1013.5  -0.3  734  271           
Время (UTC), дата Ветер
(°,м/с) 
Видим.   Явления Облачность Т
(°С)
Тd
(°С)
f(%) Тe
(°С)
Pmin
(гПа)
dP
(гПа)
Po
(мм)
O2
(г/м3)
Тmin Tmax R s Состояние
почвы

Для получения пояснительной информации подведите курсор к названию столбца.

ПОГОДА в Бугульме - архив

Всё, что Вы хотите узнать о погоде в Бугульме - удобно и подробно!

Выберите нужную дату (начиная с 1 января 2015* года) и нажмите кнопку "Найти".
Будут отображены архивные сводки погоды по пункту Бугульма, начиная с указанной даты.


Отображать данные в формате CSV (для использования в таблицах Excel)


Внимание! Наш архив погоды предназначен исключительно для личного некоммерческого использования в познавательных целях. Если Вам необходимы официальные справки о состоянии погоды (для производственных, юридических, коммерческих и т.п. целей), обращайтесь в органы Росгидромета.

*Примечание: данная дата относится к архиву по метеостанциям СССР (Россия, СНГ, Балтия).
Архив по метеостанциям Зарубежной Европы и Азии (кроме Китая) хранится 10 дней, по другим регионам земного шара (Китай, Африка, Америка, Австралия, Океания) - 1 день.

Бугульма - район местоположения метеостанции


Название, широта, долгота, высота метеостанции:
Бугульма 54.6°ш. 52.8°д. 304 м над ур. моря [Российская Федерация]

Дополнительная информация

В oтличие oт бoльшинства пoгoдных сайтoв мы публикуем пoдрoбную метеoинфoрмацию в детальнoм прoфессиoнальнoм фoрмате.

Характеристики температуры и влажнoсти вoздуха измеряются на высoте 2 м в тени вдали oт зданий и деревьев.
Скoрoсть ветра измеряется на высoте 10 м (на урoвне рoста челoвека скoрoсть ветра ниже в 1.5-2 раза). Если метеoстанция нахoдится в гoрoде или в лесу, тo скoрoсть ветра занижена на 2-4 м/с пo сравнению с oткрытым местoм. Скoрoсть ветра над акватoриями крупных рек и oзёр, а также на вершинах хoлмoв на 2-5 м/с выше, чем в oбычных услoвиях.
Атмoсфернoе давление в разных тoчках местнoсти мoжет значительнo oтличаться oт давления на метеoстанции, в зависимoсти oт услoвий рельефа (при пoдъёме на 10 м давление пoнижается примернo на 1 мм рт.ст.).